Simultaneous Nadir Overpasses (SNOs) Predictions

Prediction of SNOs between METOP-A and TERRA Satellite Orbit:

Table of predicted SNOs for the next 14.0 days since TLE Epoch: 12/21/2012
Index Date (METOP-A) Time (METOP-A) Lat,Lon (METOP-A) SZA (METOP-A ) Date (TERRA) Time (TERRA) Lat,Lon (TERRA) SZA (TERRA ) Distance(km) Time Diff (sec)
1 12/23/2012 06:39:50 81.34, 127.90 107.47 12/23/2012 06:40:35 81.34, 127.88 107.48 0.39 45
2 12/23/2012 07:30:30 -81.34, -64.58 72.52 12/23/2012 07:30:02 -81.34, -64.54 72.53 0.90 28
3 12/26/2012 02:14:10 81.34,-165.88 107.34 12/26/2012 02:14:57 81.34,-165.79 107.36 1.58 47
4 12/26/2012 03:04:49 -81.35, 2.04 72.60 12/26/2012 03:04:23 -81.36, 2.22 72.59 3.14 26
5 12/28/2012 21:48:29 81.34, -99.19 107.20 12/28/2012 21:49:23 81.35, -99.17 107.23 0.79 54
6 12/28/2012 22:39:09 -81.34, 68.35 72.79 12/28/2012 22:38:50 -81.35, 68.49 72.78 2.35 19
7 12/31/2012 17:22:49 81.34, -33.22 106.92 12/31/2012 17:23:54 81.34, -33.05 106.96 2.87 65
8 12/31/2012 18:13:28 -81.34, 134.74 73.02 12/31/2012 18:13:21 -81.34, 134.65 73.04 1.55 7
9 01/03/2013 13:47:45 -81.34,-158.80 73.31 01/03/2013 13:47:54 -81.34,-158.91 73.32 1.85 9




NCC Satellite Simultaneous Nadir Overpasses (SNOs) Prediction Service
